FW1801 Weather Reports


time (UTC)temp
F
wind
direction
speed
knots
gust
knots
rain 1hr
in
rain 24hr
in
rain mn
in
humidity
%
barometer
mb
20260505093052 59 214 0.0 1.7 0.00 0.00 0.00 65 1007.0
20260505091548 59 51 0.9 4.3 0.00 0.00 0.00 65 1006.9
20260505090050 59 341 0.0 6.1 0.00 0.00 0.00 65 1006.8
20260505084546 59 5 0.0 2.6 0.00 0.00 0.00 65 1006.7
20260505083049 59 201 0.0 2.6 0.00 0.00 0.00 64 1006.7
20260505081543 59 76 0.0 2.6 0.00 0.00 0.00 64 1006.8
20260505080042 59 16 0.0 1.7 0.00 0.00 0.00 63 1006.9
20260505074541 59 11 0.9 1.7 0.00 0.00 0.00 62 1007.0
20260505073057 60 11 0.0 2.6 0.00 0.00 0.00 61 1007.0
20260505071537 60 140 0.9 2.6 0.00 0.00 0.00 60 1007.1
20260505070037 61 59 0.0 3.5 0.00 0.00 0.00 59 1007.1
20260505064541 61 157 0.9 7.8 0.00 0.00 0.00 58 1007.2
20260505063037 61 38 0.9 4.3 0.00 0.00 0.00 57 1007.3
20260505061547 62 196 0.9 6.1 0.00 0.00 0.00 57 1007.3
20260505060035 61 199 0.0 3.5 0.00 0.00 0.00 58 1007.2
20260505054556 61 156 0.9 6.1 0.00 0.00 0.00 58 1007.3
20260505053034 60 211 0.9 3.5 0.00 0.00 0.00 59 1007.5
20260505051530 61 223 0.0 0.9 0.00 0.00 0.00 58 1007.4
20260505041521 61 144 0.0 7.0 0.00 0.00 0.00 57 1007.1
20260505040020 61 167 0.0 4.3 0.00 0.00 0.00 57 1007.3
20260505034519 61 98 0.0 4.3 0.00 0.00 0.00 57 1007.2
20260505033021 61 19 0.0 2.6 0.00 0.00 0.00 56 1007.3
20260505031536 61 88 0.9 2.6 0.00 0.00 0.00 55 1007.4
20260505030016 62 171 0.9 3.5 0.00 0.00 0.00 54 1007.3
20260505024529 62 164 0.0 2.6 0.00 0.00 0.00 54 1007.6
20260505023015 62 194 1.7 5.2 0.00 0.00 0.00 53 1007.6
20260505021518 63 168 0.9 3.5 0.00 0.00 0.00 52 1007.8
20260505020025 63 168 0.9 4.3 0.00 0.00 0.00 51 1007.8
20260505014512 63 155 0.9 5.2 0.00 0.00 0.00 50 1007.7
20260505013013 63 223 0.9 2.6 0.00 0.00 0.00 51 1007.5
20260505011514 63 195 0.0 2.6 0.00 0.00 0.00 51 1007.4
20260505010011 64 195 0.9 2.6 0.00 0.00 0.00 50 1007.3
20260505004524 65 195 0.0 2.6 0.00 0.00 0.00 48 1007.3
20260505003010 65 165 0.9 4.3 0.00 0.00 0.00 47 1007.2
20260505001509 66 165 0.9 5.2 0.00 0.00 0.00 46 1007.0
20260505000011 67 194 0.9 3.5 0.00 0.00 0.00 45 1006.8
20260504234508 67 169 0.9 6.1 0.00 0.00 0.00 44 1006.9
20260504233008 68 212 0.9 4.3 0.00 0.00 0.00 42 1006.6
20260504231506 69 94 2.6 7.8 0.00 0.00 0.00 41 1006.6
20260504230007 69 184 0.9 4.3 0.00 0.00 0.00 40 1006.5
20260504224508 71 220 1.7 7.0 0.00 0.00 0.00 38 1006.5
20260504223007 72 188 1.7 6.1 0.00 0.00 0.00 38 1006.5
20260504221508 73 159 2.6 7.0 0.00 0.00 0.00 37 1006.6
20260504220003 74 146 2.6 8.7 0.00 0.00 0.00 36 1006.5
20260504214502 74 219 1.7 6.1 0.00 0.00 0.00 36 1006.5
20260504213001 73 204 2.6 6.1 0.00 0.00 0.00 37 1006.5
20260504211612 73 198 3.5 7.8 0.00 0.00 0.00 35 1006.6
20260504210056 74 178 0.9 7.0 0.00 0.00 0.00 38 1006.8
20260504204600 72 174 1.7 6.1 0.00 0.00 0.00 37 1006.9
20260504203100 72 132 2.6 9.6 0.00 0.00 0.00 38 1007.3
20260504201547 71 173 5.2 10.4 0.00 0.00 0.00 37 1007.6
20260504200045 70 157 2.6 9.6 0.00 0.00 0.00 39 1007.9
20260504194544 70 195 4.3 9.6 0.00 0.00 0.00 38 1007.9
20260504193043 71 254 1.7 8.7 0.00 0.00 0.00 37 1007.9
20260504191542 71 225 4.3 10.4 0.00 0.00 0.00 37 1008.2
20260504190039 70 229 3.5 10.4 0.00 0.00 0.00 39 1008.4
20260504184537 69 159 3.5 8.7 0.00 0.00 0.00 40 1008.7
20260504183036 69 150 2.6 11.3 0.00 0.00 0.00 41 1008.8
20260504181535 68 228 4.3 13.9 0.00 0.00 0.00 40 1008.8
20260504180036 68 155 6.1 12.2 0.00 0.00 0.00 40 1009.1
20260504174534 69 277 5.2 14.8 0.00 0.00 0.00 40 1009.0
20260504173034 69 274 5.2 11.3 0.00 0.00 0.00 40 1009.3
20260504171529 67 260 3.5 11.3 0.00 0.00 0.00 41 1009.3